| time (UTC) | temp C | wind direction | speed KPH | gust KPH | rain 1hr cm | rain 24hr cm | rain mn cm | humidity % | barometer mb |
| 20260510083042 | 20 | 9 | 0.0 | 0.0 | 0.00 | 0.61 | 0.00 | 94 | 1011.0 |
| 20260510081526 | 20 | 9 | 0.0 | 1.6 | 0.00 | 0.61 | 0.00 | 94 | 1011.0 |
| 20260510080014 | 20 | 9 | 0.0 | 0.0 | 0.00 | 0.61 | 0.00 | 94 | 1011.0 |
| 20260510074601 | 20 | 10 | 0.0 | 0.0 | 0.00 | 0.61 | 0.00 | 94 | 1010.9 |
| 20260510073048 | 20 | 10 | 1.6 | 3.2 | 0.00 | 0.61 | 0.00 | 94 | 1011.0 |
| 20260510071532 | 20 | 10 | 0.0 | 1.6 | 0.00 | 0.61 | 0.00 | 94 | 1010.9 |
| 20260510070022 | 20 | 11 | 0.0 | 1.6 | 0.00 | 0.61 | 0.00 | 94 | 1010.9 |
| 20260510064502 | 20 | 12 | 0.0 | 0.0 | 0.00 | 0.61 | 0.00 | 94 | 1010.9 |
| 20260510063054 | 20 | 9 | 0.0 | 0.0 | 0.00 | 0.61 | 0.00 | 94 | 1010.9 |
| 20260510061541 | 20 | 9 | 0.0 | 0.0 | 0.00 | 0.61 | 0.00 | 94 | 1010.8 |
| 20260510060025 | 20 | 11 | 0.0 | 0.0 | 0.00 | 0.61 | 0.00 | 93 | 1010.6 |
| 20260510054510 | 21 | 10 | 0.0 | 0.0 | 0.00 | 0.61 | 0.00 | 93 | 1010.6 |
| 20260510053105 | 21 | 9 | 0.0 | 0.0 | 0.00 | 0.61 | 0.00 | 93 | 1010.8 |
| 20260510051550 | 21 | 9 | 0.0 | 0.0 | 0.00 | 0.61 | 0.00 | 93 | 1010.7 |
| 20260510050029 | 21 | 9 | 0.0 | 0.0 | 0.00 | 0.61 | 0.61 | 93 | 1010.7 |
| 20260510044507 | 21 | 9 | 0.0 | 0.0 | 0.00 | 0.61 | 0.61 | 93 | 1010.5 |
| 20260510043105 | 21 | 9 | 0.0 | 0.0 | 0.00 | 0.61 | 0.61 | 93 | 1010.5 |
| 20260510041544 | 21 | 9 | 0.0 | 0.0 | 0.00 | 0.61 | 0.61 | 92 | 1010.3 |
| 20260510040038 | 22 | 9 | 0.0 | 0.0 | 0.00 | 0.61 | 0.61 | 92 | 1010.2 |
| 20260510034515 | 22 | 9 | 0.0 | 0.0 | 0.00 | 0.61 | 0.61 | 91 | 1010.1 |
| 20260510033002 | 22 | 9 | 0.0 | 0.0 | 0.00 | 0.61 | 0.61 | 91 | 1010.0 |
| 20260510031553 | 22 | 9 | 0.0 | 0.0 | 0.00 | 0.61 | 0.61 | 90 | 1009.8 |
| 20260510030037 | 23 | 9 | 0.0 | 0.0 | 0.00 | 0.61 | 0.61 | 90 | 1009.6 |
| 20260510024523 | 23 | 9 | 0.0 | 0.0 | 0.00 | 0.61 | 0.61 | 89 | 1009.4 |
| 20260510023009 | 23 | 9 | 0.0 | 0.0 | 0.00 | 0.61 | 0.61 | 88 | 1009.3 |
| 20260510021600 | 24 | 9 | 0.0 | 0.0 | 0.00 | 0.61 | 0.61 | 87 | 1009.1 |
| 20260510020046 | 24 | 9 | 0.0 | 1.6 | 0.00 | 0.61 | 0.61 | 86 | 1009.1 |
| 20260510014533 | 23 | 17 | 0.0 | 3.2 | 0.00 | 0.61 | 0.61 | 88 | 1008.9 |
| 20260510013023 | 24 | 11 | 0.0 | 3.2 | 0.00 | 0.61 | 0.61 | 89 | 1008.6 |
| 20260510011502 | 24 | 11 | 0.0 | 1.6 | 0.00 | 0.61 | 0.61 | 88 | 1008.5 |
| 20260510010053 | 25 | 10 | 0.0 | 1.6 | 0.00 | 0.61 | 0.61 | 87 | 1008.4 |
| 20260510004543 | 25 | 54 | 0.0 | 1.6 | 0.00 | 0.61 | 0.61 | 86 | 1008.2 |
| 20260510003025 | 25 | 57 | 0.0 | 3.2 | 0.00 | 0.61 | 0.61 | 83 | 1008.3 |
| 20260510001511 | 26 | 57 | 0.0 | 1.6 | 0.00 | 0.61 | 0.61 | 81 | 1008.2 |
| 20260510000104 | 26 | 57 | 0.0 | 3.2 | 0.00 | 0.61 | 0.61 | 79 | 1008.1 |
| 20260509234548 | 27 | 57 | 0.0 | 3.2 | 0.00 | 0.61 | 0.61 | 80 | 1008.0 |
| 20260509233035 | 26 | 57 | 0.0 | 1.6 | 0.00 | 0.61 | 0.61 | 83 | 1007.9 |
| 20260509231520 | 26 | 57 | 1.6 | 3.2 | 0.00 | 0.61 | 0.61 | 81 | 1007.9 |
| 20260509230009 | 25 | 57 | 0.0 | 3.2 | 0.00 | 0.61 | 0.61 | 85 | 1007.8 |
| 20260509224557 | 24 | 57 | 4.8 | 9.7 | 0.03 | 0.61 | 0.61 | 84 | 1007.9 |
| 20260509223042 | 22 | 239 | 3.2 | 8.0 | 0.51 | 0.61 | 0.61 | 91 | 1007.7 |
| 20260509221527 | 21 | 14 | 0.0 | 3.2 | 0.53 | 0.61 | 0.61 | 92 | 1007.7 |
| 20260509220018 | 20 | 67 | 0.0 | 8.0 | 0.53 | 0.61 | 0.61 | 84 | 1007.8 |
| 20260509214614 | 22 | 202 | 0.0 | 25.7 | 0.51 | 0.58 | 0.58 | 79 | 1007.7 |
| 20260509213038 | 27 | 268 | 4.8 | 17.7 | 0.03 | 0.10 | 0.10 | 72 | 1008.3 |
| 20260509211523 | 30 | 106 | 0.0 | 9.7 | 0.00 | 0.08 | 0.08 | 66 | 1008.0 |
| 20260509210009 | 31 | 130 | 1.6 | 9.7 | 0.00 | 0.08 | 0.08 | 65 | 1008.1 |
| 20260509204559 | 31 | 131 | 1.6 | 6.4 | 0.00 | 0.08 | 0.08 | 65 | 1008.3 |
| 20260509203057 | 30 | 171 | 0.0 | 6.4 | 0.00 | 0.08 | 0.08 | 69 | 1008.3 |
| 20260509201530 | 30 | 154 | 1.6 | 8.0 | 0.00 | 0.08 | 0.08 | 69 | 1008.7 |
| 20260509200016 | 30 | 78 | 4.8 | 11.3 | 0.00 | 0.08 | 0.08 | 67 | 1008.8 |
| 20260509194503 | 31 | 213 | 0.0 | 9.7 | 0.00 | 0.08 | 0.08 | 63 | 1009.0 |
| 20260509193057 | 31 | 159 | 3.2 | 9.7 | 0.00 | 0.08 | 0.08 | 65 | 1009.0 |
| 20260509191553 | 30 | 242 | 0.0 | 11.3 | 0.00 | 0.08 | 0.08 | 67 | 1009.4 |
| 20260509190006 | 31 | 209 | 1.6 | 8.0 | 0.00 | 0.08 | 0.08 | 64 | 1009.8 |
| 20260509184606 | 30 | 238 | 0.0 | 4.8 | 0.00 | 0.08 | 0.08 | 69 | 1009.9 |
| 20260509183057 | 29 | 146 | 1.6 | 3.2 | 0.00 | 0.08 | 0.08 | 72 | 1010.1 |
| 20260509181537 | 29 | 150 | 3.2 | 6.4 | 0.00 | 0.08 | 0.08 | 71 | 1010.2 |
| 20260509180022 | 29 | 249 | 0.0 | 4.8 | 0.00 | 0.08 | 0.08 | 71 | 1010.4 |
| 20260509174515 | 28 | 242 | 1.6 | 8.0 | 0.00 | 0.08 | 0.08 | 76 | 1010.5 |
| 20260509173101 | 28 | 221 | 3.2 | 9.7 | 0.00 | 0.08 | 0.08 | 74 | 1010.7 |
| 20260509171545 | 27 | 98 | 0.0 | 3.2 | 0.00 | 0.08 | 0.08 | 77 | 1010.9 |
| 20260509170032 | 27 | 5 | 3.2 | 9.7 | 0.00 | 0.08 | 0.08 | 78 | 1011.0 |
| 20260509164510 | 27 | 70 | 3.2 | 9.7 | 0.00 | 0.08 | 0.08 | 79 | 1011.0 |
| 20260509163110 | 27 | 169 | 0.0 | 6.4 | 0.00 | 0.08 | 0.08 | 83 | 1011.0 |
| 20260509161545 | 25 | 72 | 0.0 | 6.4 | 0.00 | 0.08 | 0.08 | 88 | 1011.0 |
| 20260509160029 | 25 | 134 | 0.0 | 6.4 | 0.00 | 0.08 | 0.08 | 90 | 1010.8 |
| 20260509154513 | 24 | 162 | 0.0 | 3.2 | 0.00 | 0.08 | 0.08 | 93 | 1011.1 |
| 20260509153118 | 23 | 105 | 0.0 | 6.4 | 0.00 | 0.08 | 0.08 | 94 | 1010.8 |
| 20260509151547 | 23 | 122 | 0.0 | 8.0 | 0.00 | 0.08 | 0.08 | 95 | 1010.8 |
| 20260509150033 | 23 | 16 | 0.0 | 6.4 | 0.00 | 0.08 | 0.08 | 96 | 1010.9 |
| 20260509144524 | 22 | 16 | 0.0 | 0.0 | 0.00 | 0.08 | 0.08 | 96 | 1011.4 |
| 20260509143007 | 22 | 16 | 0.0 | 1.6 | 0.00 | 0.08 | 0.08 | 96 | 1011.3 |
| 20260509141555 | 22 | 15 | 0.0 | 8.0 | 0.00 | 0.08 | 0.08 | 96 | 1011.1 |
| 20260509140041 | 22 | 5 | 0.0 | 3.2 | 0.00 | 0.08 | 0.08 | 96 | 1010.6 |
| 20260509134527 | 22 | 5 | 0.0 | 1.6 | 0.00 | 0.08 | 0.08 | 96 | 1010.7 |
| 20260509133013 | 22 | 5 | 0.0 | 1.6 | 0.00 | 0.08 | 0.08 | 96 | 1010.7 |
| 20260509131603 | 22 | 5 | 0.0 | 3.2 | 0.00 | 0.08 | 0.08 | 96 | 1011.0 |
| 20260509130103 | 22 | 11 | 0.0 | 6.4 | 0.00 | 0.08 | 0.08 | 96 | 1010.7 |
| 20260509124541 | 22 | 10 | 0.0 | 3.2 | 0.00 | 0.08 | 0.08 | 96 | 1010.3 |
| 20260509123021 | 22 | 16 | 0.0 | 0.0 | 0.00 | 0.08 | 0.08 | 96 | 1010.5 |
| 20260509121511 | 22 | 15 | 0.0 | 0.0 | 0.00 | 0.08 | 0.08 | 96 | 1010.8 |
| 20260509120058 | 22 | 15 | 0.0 | 0.0 | 0.00 | 0.08 | 0.08 | 96 | 1010.9 |
| 20260509114552 | 22 | 15 | 0.0 | 3.2 | 0.00 | 0.08 | 0.08 | 95 | 1010.8 |
| 20260509113028 | 22 | 9 | 1.6 | 8.0 | 0.00 | 0.08 | 0.08 | 95 | 1010.9 |
| 20260509111513 | 22 | 9 | 4.8 | 12.9 | 0.00 | 0.08 | 0.08 | 95 | 1010.7 |
| 20260509110109 | 22 | 9 | 8.0 | 11.3 | 0.00 | 0.08 | 0.08 | 95 | 1010.4 |
| 20260509104551 | 22 | 15 | 1.6 | 3.2 | 0.00 | 0.08 | 0.08 | 95 | 1010.3 |
| 20260509103041 | 22 | 5 | 1.6 | 3.2 | 0.08 | 0.08 | 0.08 | 95 | 1010.5 |
| 20260509101525 | 22 | 10 | 0.0 | 1.6 | 0.08 | 0.08 | 0.08 | 95 | 1010.7 |
| 20260509100007 | 22 | 10 | 0.0 | 3.2 | 0.08 | 0.08 | 0.08 | 95 | 1010.4 |
| 20260509094606 | 22 | 15 | 0.0 | 1.6 | 0.08 | 0.08 | 0.08 | 94 | 1010.3 |
| 20260509093048 | 22 | 5 | 0.0 | 9.7 | 0.00 | 0.00 | 0.00 | 94 | 1010.2 |
| 20260509091528 | 22 | 17 | 0.0 | 6.4 | 0.00 | 0.00 | 0.00 | 94 | 1010.2 |
| 20260509090020 | 22 | 14 | 0.0 | 0.0 | 0.00 | 0.00 | 0.00 | 94 | 1009.8 |
| 20260509084604 | 22 | 14 | 0.0 | 0.0 | 0.00 | 0.00 | 0.00 | 94 | 1009.9 |